Pagrindinis puslapis
METAR-TAF:

METAR-TAF

Oro uostai :

Hamilton, Teksasas, Jungtinės Amerikos Valstijos

platuma: 31-39-57N, ilguma: 098-08-55W, Aukštis: 396 m

Dabartinis oras

Ataskaita buvo paskelbta 34 minutes, ne 03:35 UTC
Vėjas 6 kt iš Pietryčių
Temperatūra 21°C
Drėgmė 94%
Slėgis 1013 hPa
Matomumas: 16.1 km
Giedras dangus

METAR: KMNZ 170335Z AUTO 14006KT 10SM CLR 21/20 A2992 RMK AO2 T02100204

Laikas: 22:09 (04:09 UTC)


TAF: trūkstamas

Orai ataskaitas ir orų prognozės (METAR, TAF).

turimą stotys yra geltonos ir raudonos taškus žemėlapyje.

Perkelti pele per norėdami pamatyti stoties vardą.

Tada spustelėkite, norėdami matyti oro stebėjimo ir prognozės.

Norėdami pakeisti žemėlapį: spustelėkite ant žalios mygtukų su juodo kryžiaus žemyn,; žalią mygtuką su brūkšneliu, jei norite nutolinti; arba žalių rodyklių gretimoms žemėlapius.


METAR-TAF: